When you browse on this site, cookies collect data to enhance your experience and personalize the content and advertising you see.
Visit our Privacy Policy to learn more. By continuing to use the site, you agree to this use of cookies and data.
  • In Hungary
  • List of Countries
  • For 7 days
  • Water Temperature
  • Satellite Maps
  • Weather Map
  • News
  • Weather Widgets
  • user-avatar
    Login

    Hourly Weather Kavango

    Today, 11 December, Tuesday

    Time Temperature Precipitation Wind Pressure Humidity
    00:00 +25°C° 0 mm 3 mps 663 mmHg 12%
    01:00 +25°C° 0 mm 3 mps 663 mmHg 13%
    02:00 +24°C° 0 mm 2 mps 663 mmHg 12%
    03:00 +23°C° 0 mm 2 mps 663 mmHg 12%
    04:00 +23°C° 0 mm 2 mps 663 mmHg 12%
    05:00 +25°C° 0 mm 2 mps 664 mmHg 11%
    06:00 +27°C° 0 mm 2 mps 665 mmHg 10%
    07:00 +29°C° 0 mm 2 mps 665 mmHg 9%
    08:00 +31°C° 0 mm 2 mps 666 mmHg 7%
    09:00 +35°C° 0 mm 3 mps 666 mmHg 6%
    10:00 +38°C° 0 mm 3 mps 667 mmHg 5%
    11:00 +39°C° 0 mm 3 mps 666 mmHg 5%
    12:00 +40°C° 0 mm 3 mps 666 mmHg 4%
    13:00 +41°C° 0 mm 2 mps 665 mmHg 4%
    14:00 +41°C° 0 mm 2 mps 665 mmHg 4%
    15:00 +42°C° 0 mm 3 mps 664 mmHg 4%
    16:00 +42°C° 0 mm 3 mps 663 mmHg 4%
    17:00 +37°C° 0 mm 3 mps 663 mmHg 5%
    18:00 +34°C° 0 mm 2 mps 663 mmHg 6%
    19:00 +30°C° 0 mm 2 mps 662 mmHg 7%
    20:00 +29°C° 0 mm 2 mps 663 mmHg 8%
    21:00 +28°C° 0 mm 3 mps 663 mmHg 8%
    22:00 +27°C° 0 mm 3 mps 663 mmHg 9%
    23:00 +26°C° 0 mm 3 mps 663 mmHg 10%

    Tomorrow, 12 December, Wednesday

    Time Temperature Precipitation Wind Pressure Humidity
    00:00 +25°C° 0 mm 2 mps 663 mmHg 12%
    01:00 +25°C° 0 mm 2 mps 663 mmHg 13%
    02:00 +24°C° 0 mm 2 mps 663 mmHg 17%
    03:00 +24°C° 0 mm 2 mps 662 mmHg 21%
    04:00 +23°C° 0 mm 2 mps 662 mmHg 26%
    05:00 +25°C° 0 mm 3 mps 663 mmHg 28%
    06:00 +27°C° 0 mm 3 mps 664 mmHg 31%
    07:00 +29°C° 0 mm 4 mps 665 mmHg 34%
    08:00 +32°C° 0 mm 4 mps 665 mmHg 30%
    09:00 +35°C° 0 mm 4 mps 666 mmHg 26%
    10:00 +39°C° 0 mm 5 mps 666 mmHg 22%
    11:00 +38°C° 0 mm 4 mps 666 mmHg 21%
    12:00 +38°C° 0 mm 4 mps 665 mmHg 20%
    13:00 +38°C° 0 mm 4 mps 664 mmHg 19%
    14:00 +38°C° 0 mm 3 mps 664 mmHg 19%
    15:00 +37°C° 0 mm 3 mps 664 mmHg 19%
    16:00 +37°C° 0 mm 3 mps 664 mmHg 19%
    17:00 +36°C° 0 mm 3 mps 664 mmHg 22%
    18:00 +34°C° 0 mm 3 mps 664 mmHg 24%
    19:00 +31°C° 0 mm 2 mps 664 mmHg 27%
    20:00 +30°C° 0 mm 2 mps 664 mmHg 29%
    21:00 +29°C° 0 mm 2 mps 665 mmHg 32%
    22:00 +28°C° 0 mm 3 mps 665 mmHg 34%
    23:00 +28°C° 0 mm 3 mps 665 mmHg 36%

    Day after tomorrow, 13 December, Thursday

    Time Temperature Precipitation Wind Pressure Humidity
    00:00 +27°C° 0 mm 3 mps 664 mmHg 39%
    01:00 +26°C° 0 mm 3 mps 664 mmHg 41%
    02:00 +25°C° 0 mm 2 mps 664 mmHg 43%
    03:00 +25°C° 0 mm 2 mps 664 mmHg 45%
    04:00 +24°C° 0 mm 2 mps 664 mmHg 47%
    05:00 +25°C° 0 mm 2 mps 664 mmHg 44%
    06:00 +27°C° 0 mm 2 mps 665 mmHg 41%
    07:00 +28°C° 0 mm 2 mps 666 mmHg 38%
    08:00 +31°C° 0 mm 2 mps 666 mmHg 32%
    09:00 +35°C° 0 mm 2 mps 667 mmHg 27%
    10:00 +37°C° 0 mm 2 mps 667 mmHg 21%
    11:00 +38°C° 0 mm 2 mps 667 mmHg 19%
    12:00 +39°C° 0 mm 3 mps 666 mmHg 16%
    13:00 +40°C° 0 mm 3 mps 666 mmHg 13%
    14:00 +40°C° 0 mm 3 mps 665 mmHg 13%
    15:00 +39°C° 0 mm 2 mps 664 mmHg 13%
    16:00 +39°C° 0 mm 2 mps 664 mmHg 13%
    17:00 +36°C° 0 mm 1 mps 664 mmHg 14%
    18:00 +34°C° 0 mm 1 mps 664 mmHg 16%
    19:00 +33°C° 0 mm 1 mps 664 mmHg 17%
    20:00 +32°C° 0 mm 1 mps 664 mmHg 19%
    21:00 +31°C° 0 mm 2 mps 665 mmHg 20%
    22:00 +30°C° 0 mm 2 mps 665 mmHg 22%
    23:00 +29°C° 0 mm 2 mps 664 mmHg 25%

    14 December, Friday

    Time Temperature Precipitation Wind Pressure Humidity
    00:00 +28°C° 0 mm 2 mps 664 mmHg 27%
    01:00 +27°C° 0 mm 1 mps 664 mmHg 29%
    02:00 +26°C° 0 mm 1 mps 664 mmHg 32%
    03:00 +25°C° 0 mm 1 mps 664 mmHg 34%
    04:00 +24°C° 0 mm 2 mps 663 mmHg 37%
    05:00 +26°C° 0 mm 2 mps 664 mmHg 34%
    06:00 +28°C° 0 mm 2 mps 665 mmHg 31%
    07:00 +30°C° 0 mm 2 mps 666 mmHg 28%
    08:00 +34°C° 0 mm 3 mps 667 mmHg 24%
    09:00 +36°C° 0 mm 4 mps 667 mmHg 19%
    10:00 +40°C° 0 mm 4 mps 667 mmHg 15%
    11:00 +41°C° 0 mm 4 mps 667 mmHg 14%
    12:00 +42°C° 0 mm 4 mps 666 mmHg 13%
    13:00 +42°C° 0 mm 4 mps 665 mmHg 11%
    14:00 +40°C° 0 mm 3 mps 665 mmHg 12%
    15:00 +40°C° 0 mm 3 mps 664 mmHg 13%
    16:00 +39°C° 0 mm 2 mps 664 mmHg 13%
    17:00 +37°C° 0 mm 2 mps 664 mmHg 15%
    18:00 +34°C° 0 mm 1 mps 664 mmHg 16%
    19:00 +33°C° 0 mm 1 mps 664 mmHg 18%
    20:00 +32°C° 0 mm 1 mps 664 mmHg 18%
    21:00 +32°C° 0 mm 2 mps 665 mmHg 19%
    22:00 +32°C° 0 mm 2 mps 665 mmHg 19%
    23:00 +31°C° 0 mm 2 mps 665 mmHg 22%

    15 December, Saturday

    Time Temperature Precipitation Wind Pressure Humidity
    00:00 +30°C° 0 mm 2 mps 664 mmHg 25%
    01:00 +29°C° 0 mm 2 mps 664 mmHg 27%
    02:00 +28°C° 0 mm 2 mps 664 mmHg 30%
    03:00 +27°C° 0 mm 2 mps 664 mmHg 32%
    04:00 +25°C° 0 mm 2 mps 664 mmHg 34%
    05:00 +27°C° 0 mm 2 mps 664 mmHg 32%
    06:00 +29°C° 0 mm 2 mps 665 mmHg 29%
    07:00 +31°C° 0 mm 2 mps 666 mmHg 27%
    08:00 +34°C° 0 mm 3 mps 667 mmHg 24%
    09:00 +37°C° 0 mm 3 mps 667 mmHg 20%
    10:00 +40°C° 0 mm 4 mps 667 mmHg 17%
    11:00 +40°C° 0 mm 4 mps 666 mmHg 15%
    12:00 +41°C° 0 mm 4 mps 666 mmHg 14%
    13:00 +42°C° 0 mm 4 mps 665 mmHg 13%
    14:00 +41°C° 0 mm 4 mps 665 mmHg 13%
    15:00 +40°C° 0 mm 4 mps 664 mmHg 14%
    16:00 +40°C° 0 mm 4 mps 664 mmHg 15%
    17:00 +37°C° 0 mm 3 mps 664 mmHg 17%
    18:00 +35°C° 0 mm 3 mps 664 mmHg 19%
    19:00 +34°C° 0 mm 2 mps 664 mmHg 21%
    20:00 +32°C° 0 mm 2 mps 664 mmHg 23%
    21:00 +31°C° 0 mm 2 mps 665 mmHg 24%
    22:00 +30°C° 0 mm 2 mps 665 mmHg 26%
    23:00 +29°C° 0 mm 2 mps 664 mmHg 27%

    16 December, Sunday

    Time Temperature Precipitation Wind Pressure Humidity
    00:00 +28°C° 0 mm 2 mps 664 mmHg 28%
    01:00 +27°C° 0 mm 2 mps 664 mmHg 30%
    02:00 +26°C° 0 mm 2 mps 664 mmHg 33%
    03:00 +25°C° 0 mm 2 mps 664 mmHg 37%
    04:00 +24°C° 0 mm 2 mps 664 mmHg 40%
    05:00 +26°C° 0 mm 2 mps 665 mmHg 39%
    06:00 +28°C° 0 mm 3 mps 665 mmHg 38%
    07:00 +29°C° 0 mm 3 mps 666 mmHg 37%
    08:00 +33°C° 0 mm 3 mps 666 mmHg 32%
    09:00 +35°C° 0 mm 3 mps 667 mmHg 27%
    10:00 +38°C° 0 mm 3 mps 667 mmHg 21%
    11:00 +38°C° 0 mm 3 mps 666 mmHg 19%
    12:00 +39°C° 0 mm 3 mps 665 mmHg 17%
    13:00 +40°C° 0 mm 4 mps 664 mmHg 16%
    14:00 +40°C° 0 mm 4 mps 664 mmHg 16%
    15:00 +40°C° 0 mm 4 mps 664 mmHg 16%
    16:00 +40°C° 0 mm 4 mps 663 mmHg 16%
    17:00 +37°C° 0.1 mm 3 mps 664 mmHg 19%
    18:00 +35°C° 0.1 mm 3 mps 664 mmHg 22%
    19:00 +32°C° 0.1 mm 2 mps 664 mmHg 24%
    20:00 +31°C° 0 mm 2 mps 664 mmHg 27%
    21:00 +30°C° 0 mm 2 mps 664 mmHg 30%
    22:00 +29°C° 0 mm 2 mps 664 mmHg 33%
    23:00 +28°C° 0 mm 2 mps 664 mmHg 37%
    Show more